Regional Weather Roundup
Issued by NWS

Home | Current Version | Previous Version | Text Only | Print | Product List | Glossary On
Versions: 1 2 3 4 5 6 7 8 9 10 11 12 13 14 15 16 17 18 19 20 21 22 23 24 25 26 27 28 29 30 31 32 33 34 35 36 37 38 39 40 41 42 43 44 45 46 47 48 49 50
000
ASUS43 KMKX 242211
RWRWI

WISCONSIN REGIONAL WEATHER ROUNDUP
NATIONAL WEATHER SERVICE MILWAUKEE/SULLIVAN WI
500 PM CDT MON APR 24 2017

NOTE: "FAIR" INDICATES FEW OR NO CLOUDS BELOW 12,000 FEET WITH NO
SIGNIFICANT WEATHER AND/OR OBSTRUCTIONS TO VISIBILITY.

WIZ001-002-006>008-014>016-023>028-242300-
NORTHWEST WISCONSIN

CITY           SKY/WX    TMP DP  RH WIND       PRES   REMARKS
SUPERIOR ARPT  CLOUDY    38  34  86 E18G33    29.72F WCI  28
ASHLAND        CLOUDY    41  33  73 NE16      29.72F
HAYWARD        CLOUDY    66  30  26 S15G25    29.67F
SIREN          CLOUDY    67  29  24 S17G24    29.63F
CUMBERLAND     CLOUDY    63  32  31 SE15G23   29.66S
RICE LAKE      CLOUDY    66  32  27 SE16G25   29.68F
CHETEK         CLOUDY    65  33  30 SE16G22   29.66F
LADYSMITH      CLOUDY    66  32  28 S15       29.71F
EAU CLAIRE     CLOUDY    68  28  22 S12G21    29.67F
MENOMONIE      CLOUDY    69  31  23 SE13      29.66S
NEW RICHMOND   CLOUDY    67  27  22 S23       29.63F
OSCEOLA        CLOUDY    67  31  25 S10G18    29.65F
$$

WIZ003>005-009-010-017-018-242300-
NORTH CENTRAL WISCONSIN

CITY           SKY/WX    TMP DP  RH WIND       PRES   REMARKS
MANITOWISH WTR CLOUDY    64  30  27 S16G23    29.72F
ARBOR VITAE    CLOUDY    64  28  25 S13G20    29.74F
WOODRUFF       CLOUDY    64  28  25 S13G20    29.74F
RHINELANDER    CLOUDY    65  33  30 SE17G24   29.77F
EAGLE RIVER    MOSUNNY   64  26  24 S14G22    29.76F
LAND O LAKES   CLOUDY    64  26  23 S16G24    29.78F
PHILLIPS       CLOUDY    63  31  30 S17G23    29.71F
TOMAHAWK       CLOUDY    64  31  29 S7        29.75F
MEDFORD        CLOUDY    62  33  34 SE14G20   29.72F
MERRILL        CLOUDY    64  36  34 S9G17     29.76F
$$

WIZ029-030-035-036-043>047-242300-
CENTRAL WISCONSIN

CITY           SKY/WX    TMP DP  RH WIND       PRES   REMARKS
WAUSAU         MOSUNNY   66  33  29 SE17G25   29.74F
MOSINEE        PTSUNNY   66  32  28 SE14G24   29.76F
MARSHFIELD     CLOUDY    66  32  28 S17G26    29.71F
STEVENS POINT  CLOUDY    67  29  24 S12G20    29.76F
WAUPACA        MOSUNNY   72  25  17 S13G22    29.78F
WAUTOMA        MOSUNNY   71  32  23 S14G24    29.77F
WISC RAPIDS    NOT AVBL
CAMP DOUGLAS   CLOUDY    70  30  23 SE13G24   29.71F
$$

WIZ011>013-019>022-031-037>040-048>050-242300-
NORTHEAST WISCONSIN

CITY           SKY/WX    TMP DP  RH WIND       PRES   REMARKS
ANTIGO         CLOUDY    61  39  44 SE15      29.79F
SHAWANO        CLOUDY    66  42  41 SE12      29.82F
OCONTO         MOSUNNY   54  40  60 E8        29.85F
STURGEON BAY   CLOUDY    50  38  63 E9        29.88F
GREEN BAY      CLOUDY    67  39  35 SE16      29.83F
MANITOWOC      SUNNY     58  34  40 S10       29.87F
APPLETON       PTSUNNY   66  28  24 SE12G20   29.80F
CLINTONVILLE   MOSUNNY   66  32  28 SE12      29.80F
OSHKOSH        CLOUDY    70  42  36 SE17G24   29.80F
$$

WIZ032>034-041-042-053>061-242300-
SOUTHWEST WISCONSIN

CITY           SKY/WX    TMP DP  RH WIND       PRES   REMARKS
LA CROSSE      CLOUDY    73  31  21 SE18G25   29.67F
SPARTA         CLOUDY    71  27  19 S20G25    29.70F
VIROQUA        CLOUDY    68  28  22 S18G28    29.71F
BOSCOBEL       MOSUNNY   73  28  18 SE7       29.72F
PRAIRIE DU CHI CLOUDY    73  22  15 SE13G21   29.69F
PLATTEVILLE    MOSUNNY   72  29  20 SE20G26   29.74F
$$

WIZ056-057-062-063-064-067-068-242300-
SOUTH CENTRAL WISCONSIN

CITY           SKY/WX    TMP DP  RH WIND       PRES   REMARKS
REEDSBURG      CLOUDY    70  31  23 S13G21    29.74F
BARABOO/DELLS  CLOUDY    71  28  20 S15       29.75F
LONE ROCK      CLOUDY    71  30  21 SE15G24   29.73F
MINERAL POINT  MOSUNNY   72  23  16 S17G23    29.74F
MADISON        PTSUNNY   70  28  21 SE15      29.77F
MIDDLETON      MOSUNNY   72  25  17 S13G21    29.77F
WATERTOWN      CLOUDY    69  35  28 SE15      29.80F
MONROE         MOSUNNY   70  28  21 SE13G20   29.77F
JANESVILLE     PTSUNNY   73  23  15 S13G23    29.79F
$$

WIZ051-052-058>065-066-070>072-242300-
SOUTHEAST WISCONSIN

CITY           SKY/WX    TMP DP  RH WIND       PRES   REMARKS
MILWAUKEE      CLOUDY    64  33  31 SE12      29.86F
WAUKESHA       SUNNY     64  23  20 SE14      29.84F
MILWAUKEE/TIMM SUNNY     66  14  13 SE17      29.86F
RACINE         MOSUNNY   60  33  36 E8        29.87F
KENOSHA        MOSUNNY   65  31  28 SE13      29.85F
FOND DU LAC    CLOUDY    68  35  29 SE17      29.81F
SHEBOYGAN      CLOUDY    62  33  33 S14       29.86F
WEST BEND      CLOUDY    64  27  24 SE15G23   29.84F
JUNEAU         CLOUDY    67  37  33 SE15      29.82F
$$

LSZ147-162-242300-
LAKE SUPERIOR

STATION/POSITION TIME  TEMP    WIND        PRES    WAVE
                       AIR SEA DIR/SP/G            HT/PER
                 (UTC) (F)     (DEG/KT/KT) (MB)    (FT/S)
DEVILS ISLAND    2200   36      50/ 29/ 31 1007.8F
SAXON HARBOR     2130   40     310/  5/  7 1006.1F
$$

LMZ867-665-643>646-242300-
LAKE MICHIGAN

STATION/POSITION TIME  TEMP    WIND        PRES    WAVE
                       AIR SEA DIR/SP/G            HT/PER
                 (UTC) (F)     (DEG/KT/KT) (MB)    (FT/S)
CHAMBERS ISLAND  2140   47      60/  7/  8 1011.5F
N MID LAKE BUOY  2150   40 37   90/  8/ 10 1013.8F   2/ 3
NORTHPORT PIER   2140   40      80/  7/ 11 1012.5F
SISTER BAY       2106   51     120/ 12/ 15   N/A
KEWAUNEE LAKESHO 2148   43      80/  3/  6 1011.4F
SHEBOYGAN LAKESH 2200   47     140/  8/  9 1011.3F
PORT WASHINGTON  2130   49     130/  2/  3 1012.5F
MILWAUKEE LAKESH 2150   46      70/  2/  3   N/A
S MID LAKE BUOY  2050   48 43   20/  6/  6 1012.7F   1/ 5
KENOSHA   LAKESH 2200   49      30/  3/  3 1010.8
$$

TC  - TEMPERATURE IN CELSIUS
VSB - VISIBILITY IN STATUTE MILES
WCI - WIND CHILL INDEX
HX  - HEAT INDEX





USA.gov is the U.S. government's official web portal to all federal, state and local government web resources and services.